SATLLA-1

Last updated on Thu Dec 03 2020 06:15:12 GMT+0000 (Coordinated Universal Time)

1 46927U 98067RX 20337.94306545 .00015381 00000-0 27139-3 0 9992 2 46927 51.6460 233.2379 0003783 113.2515 246.9102 15.50575105 4260
UTC large
Height (km)
Speed (km/s)
/
Latitude / Longitude
Inclination (degrees)
Orbital Period (minutes)
Azimuth
Elevation
Range (km)
Doppler Factor

Next 0 passes for location: London (51.5072 / 0.1276)

Sorry there are no passes over London.